Year,Month,Day,Hour,Minute,Value (Times are PST for temperature in C)
2007,12,02,00,00,1.10
2007,12,02,00,01,1.00
2007,12,02,00,02,0.90
2007,12,02,00,03,0.80
2007,12,02,00,04,0.70
2007,12,02,00,05,0.70
2007,12,02,00,06,0.70
2007,12,02,00,07,0.60
2007,12,02,00,08,0.60
2007,12,02,00,09,0.60
2007,12,02,00,10,0.60
2007,12,02,00,11,0.60
2007,12,02,00,12,0.60
2007,12,02,00,13,0.60
2007,12,02,00,14,0.60
2007,12,02,00,15,0.60
2007,12,02,00,16,0.60
2007,12,02,00,17,0.60
2007,12,02,00,18,0.60
2007,12,02,00,19,0.60
2007,12,02,00,20,0.60
2007,12,02,00,21,0.60
2007,12,02,00,22,0.60
2007,12,02,00,23,0.60
2007,12,02,00,24,0.70
2007,12,02,00,25,0.70
2007,12,02,00,26,0.70
2007,12,02,00,27,0.70
2007,12,02,00,28,0.70
2007,12,02,00,29,0.70
2007,12,02,00,30,0.70
2007,12,02,00,31,0.60
2007,12,02,00,32,0.60
2007,12,02,00,33,0.60
2007,12,02,00,34,0.60
2007,12,02,00,35,0.60
2007,12,02,00,36,0.60
2007,12,02,00,37,0.60
2007,12,02,00,38,0.60
2007,12,02,00,39,0.60
2007,12,02,00,40,0.60
2007,12,02,00,41,0.60
2007,12,02,00,42,0.60
2007,12,02,00,43,0.60
2007,12,02,00,44,0.60
2007,12,02,00,45,0.60
2007,12,02,00,46,0.60
2007,12,02,00,47,0.70
2007,12,02,00,48,0.70
2007,12,02,00,49,0.70
2007,12,02,00,50,0.60
2007,12,02,00,51,0.60
2007,12,02,00,52,0.60
2007,12,02,00,53,0.60
2007,12,02,00,54,0.60
2007,12,02,00,55,0.50
2007,12,02,00,56,0.50
2007,12,02,00,57,0.40
2007,12,02,00,58,0.40
2007,12,02,00,59,0.40
2007,12,02,01,00,0.30
2007,12,02,01,01,0.30
2007,12,02,01,02,0.30
2007,12,02,01,03,0.30
2007,12,02,01,04,0.30
2007,12,02,01,05,0.30
2007,12,02,01,06,0.30
2007,12,02,01,07,0.30
2007,12,02,01,08,0.30
2007,12,02,01,09,0.30
2007,12,02,01,10,0.30
2007,12,02,01,11,0.30
2007,12,02,01,12,0.30
2007,12,02,01,13,0.30
2007,12,02,01,14,0.30
2007,12,02,01,15,0.30
2007,12,02,01,16,0.30
2007,12,02,01,17,0.30
2007,12,02,01,18,0.30
2007,12,02,01,19,0.30
2007,12,02,01,20,0.30
2007,12,02,01,21,0.30
2007,12,02,01,22,0.30
2007,12,02,01,23,0.30
2007,12,02,01,24,0.30
2007,12,02,01,25,0.30
2007,12,02,01,26,0.30
2007,12,02,01,27,0.30
2007,12,02,01,28,0.20
2007,12,02,01,29,0.20
2007,12,02,01,30,0.20
2007,12,02,01,31,0.20
2007,12,02,01,32,0.20
2007,12,02,01,33,0.20
2007,12,02,01,34,0.20
2007,12,02,01,35,0.30
2007,12,02,01,36,0.40
2007,12,02,01,37,0.50
2007,12,02,01,38,0.60
2007,12,02,01,39,0.70
2007,12,02,01,40,0.70
2007,12,02,01,41,0.80
2007,12,02,01,42,1.00
2007,12,02,01,43,1.10
2007,12,02,01,44,1.20
2007,12,02,01,45,1.20
2007,12,02,01,46,1.30
2007,12,02,01,47,1.30
2007,12,02,01,48,1.30
2007,12,02,01,49,1.30
2007,12,02,01,50,1.30
2007,12,02,01,51,1.40
2007,12,02,01,52,1.40
2007,12,02,01,53,1.40
2007,12,02,01,54,1.40
2007,12,02,01,55,1.30
2007,12,02,01,56,1.30
2007,12,02,01,57,1.30
2007,12,02,01,58,1.30
2007,12,02,01,59,1.30
2007,12,02,02,00,1.30
2007,12,02,02,01,1.30
2007,12,02,02,02,1.30
2007,12,02,02,03,1.30
2007,12,02,02,04,1.30
2007,12,02,02,05,1.30
2007,12,02,02,06,1.30
2007,12,02,02,07,1.20
2007,12,02,02,08,1.20
2007,12,02,02,09,1.20
2007,12,02,02,10,1.20
2007,12,02,02,11,1.10
2007,12,02,02,12,1.10
2007,12,02,02,13,1.10
2007,12,02,02,14,1.10
2007,12,02,02,15,1.10
2007,12,02,02,16,1.10
2007,12,02,02,17,1.00
2007,12,02,02,18,1.00
2007,12,02,02,19,1.00
2007,12,02,02,20,1.00
2007,12,02,02,21,0.90
2007,12,02,02,22,0.90
2007,12,02,02,23,0.90
2007,12,02,02,24,0.90
2007,12,02,02,25,0.80
2007,12,02,02,26,0.80
2007,12,02,02,27,0.80
2007,12,02,02,28,0.80
2007,12,02,02,29,0.70
2007,12,02,02,30,0.70
2007,12,02,02,31,0.70
2007,12,02,02,32,0.70
2007,12,02,02,33,0.70
2007,12,02,02,34,0.70
2007,12,02,02,35,0.60
2007,12,02,02,36,0.60
2007,12,02,02,37,0.60
2007,12,02,02,38,0.60
2007,12,02,02,39,0.50
2007,12,02,02,40,0.50
2007,12,02,02,41,0.50
2007,12,02,02,42,0.50
2007,12,02,02,43,0.50
2007,12,02,02,44,0.50
2007,12,02,02,45,0.50
2007,12,02,02,46,0.50
2007,12,02,02,47,0.50
2007,12,02,02,48,0.50
2007,12,02,02,49,0.50
2007,12,02,02,50,0.50
2007,12,02,02,51,0.50
2007,12,02,02,52,0.40
2007,12,02,02,53,0.40
2007,12,02,02,54,0.40
2007,12,02,02,55,0.40
2007,12,02,02,56,0.40
2007,12,02,02,57,0.30
2007,12,02,02,58,0.30
2007,12,02,02,59,0.30
2007,12,02,03,00,0.30
2007,12,02,03,01,0.30
2007,12,02,03,02,0.30
2007,12,02,03,03,0.30
2007,12,02,03,04,0.30
2007,12,02,03,05,0.30
2007,12,02,03,06,0.30
2007,12,02,03,07,0.30
2007,12,02,03,08,0.30
2007,12,02,03,09,0.30
2007,12,02,03,10,0.20
2007,12,02,03,11,0.20
2007,12,02,03,12,0.20
2007,12,02,03,13,0.20
2007,12,02,03,14,0.20
2007,12,02,03,15,0.20
2007,12,02,03,16,0.10
2007,12,02,03,17,0.10
2007,12,02,03,18,0.10
2007,12,02,03,19,0.10
2007,12,02,03,20,0.10
2007,12,02,03,21,0.10
2007,12,02,03,22,0.10
2007,12,02,03,23,0.10
2007,12,02,03,24,0.10
2007,12,02,03,25,0.10
2007,12,02,03,26,0.10
2007,12,02,03,27,0.10
2007,12,02,03,28,0.10
2007,12,02,03,29,0.10
2007,12,02,03,30,0.20
2007,12,02,03,31,0.20
2007,12,02,03,32,0.20
2007,12,02,03,33,0.20
2007,12,02,03,34,0.20
2007,12,02,03,35,0.20
2007,12,02,03,36,0.20
2007,12,02,03,37,0.20
2007,12,02,03,38,0.20
2007,12,02,03,39,0.20
2007,12,02,03,40,0.20
2007,12,02,03,41,0.30
2007,12,02,03,42,0.30
2007,12,02,03,43,0.20
2007,12,02,03,44,0.30
2007,12,02,03,45,0.20
2007,12,02,03,46,0.20
2007,12,02,03,47,0.20
2007,12,02,03,48,0.20
2007,12,02,03,49,0.20
2007,12,02,03,50,0.20
2007,12,02,03,51,0.20
2007,12,02,03,52,0.20
2007,12,02,03,53,0.20
2007,12,02,03,54,0.20
2007,12,02,03,55,0.20
2007,12,02,03,56,0.20
2007,12,02,03,57,0.20
2007,12,02,03,58,0.20
2007,12,02,03,59,0.20
2007,12,02,04,00,0.20
2007,12,02,04,01,0.20
2007,12,02,04,02,0.20
2007,12,02,04,03,0.20
2007,12,02,04,04,0.20
2007,12,02,04,05,0.20
2007,12,02,04,06,0.20
2007,12,02,04,07,0.20
2007,12,02,04,08,0.20
2007,12,02,04,09,0.20
2007,12,02,04,10,0.30
2007,12,02,04,11,0.30
2007,12,02,04,12,0.20
2007,12,02,04,13,0.20
2007,12,02,04,14,0.20
2007,12,02,04,15,0.20
2007,12,02,04,16,0.20
2007,12,02,04,17,0.20
2007,12,02,04,18,0.20
2007,12,02,04,19,0.20
2007,12,02,04,20,0.20
2007,12,02,04,21,0.20
2007,12,02,04,22,0.20
2007,12,02,04,23,0.20
2007,12,02,04,24,0.20
2007,12,02,04,25,0.20
2007,12,02,04,26,0.20
2007,12,02,04,27,0.20
2007,12,02,04,28,0.20
2007,12,02,04,29,0.20
2007,12,02,04,30,0.30
2007,12,02,04,31,0.30
2007,12,02,04,32,0.30
2007,12,02,04,33,0.30
2007,12,02,04,34,0.30
2007,12,02,04,35,0.20
2007,12,02,04,36,0.20
2007,12,02,04,37,0.10
2007,12,02,04,38,0.10
2007,12,02,04,39,0.10
2007,12,02,04,40,0.10
2007,12,02,04,41,0.00
2007,12,02,04,42,0.00
2007,12,02,04,43,0.00
2007,12,02,04,44,0.00
2007,12,02,04,45,0.00
2007,12,02,04,46,0.00
2007,12,02,04,47,0.00
2007,12,02,04,48,0.00
2007,12,02,04,49,0.00
2007,12,02,04,50,-0.10
2007,12,02,04,51,-0.10
2007,12,02,04,52,-0.10
2007,12,02,04,53,0.00
2007,12,02,04,54,0.00
2007,12,02,04,55,0.10
2007,12,02,04,56,0.10
2007,12,02,04,57,0.10
2007,12,02,04,58,0.10
2007,12,02,04,59,0.10
2007,12,02,05,00,0.10
2007,12,02,05,01,0.20
2007,12,02,05,02,0.20
2007,12,02,05,03,0.20
2007,12,02,05,04,0.20
2007,12,02,05,05,0.20
2007,12,02,05,06,0.20
2007,12,02,05,07,0.20
2007,12,02,05,08,0.20
2007,12,02,05,09,0.20
2007,12,02,05,10,0.20
2007,12,02,05,11,0.20
2007,12,02,05,12,0.20
2007,12,02,05,13,0.20
2007,12,02,05,14,0.20
2007,12,02,05,15,0.20
2007,12,02,05,16,0.20
2007,12,02,05,17,0.20
2007,12,02,05,18,0.20
2007,12,02,05,19,0.20
2007,12,02,05,20,0.20
2007,12,02,05,21,0.20
2007,12,02,05,22,0.20
2007,12,02,05,23,0.30
2007,12,02,05,24,0.30
2007,12,02,05,25,0.30
2007,12,02,05,26,0.30
2007,12,02,05,27,0.30
2007,12,02,05,28,0.30
2007,12,02,05,29,0.20
2007,12,02,05,30,0.20
2007,12,02,05,31,0.20
2007,12,02,05,32,0.10
2007,12,02,05,33,0.10
2007,12,02,05,34,0.10
2007,12,02,05,35,0.10
2007,12,02,05,36,0.10
2007,12,02,05,37,0.10
2007,12,02,05,38,0.10
2007,12,02,05,39,0.10
2007,12,02,05,40,0.00
2007,12,02,05,41,0.00
2007,12,02,05,42,0.00
2007,12,02,05,43,0.00
2007,12,02,05,44,0.00
2007,12,02,05,45,0.00
2007,12,02,05,46,0.00
2007,12,02,05,47,0.10
2007,12,02,05,48,0.10
2007,12,02,05,49,0.10
2007,12,02,05,50,0.10
2007,12,02,05,51,0.10
2007,12,02,05,52,0.10
2007,12,02,05,53,0.10
2007,12,02,05,54,0.00
2007,12,02,05,55,0.00
2007,12,02,05,56,0.00
2007,12,02,05,57,0.00
2007,12,02,05,58,0.00
2007,12,02,05,59,-0.10
2007,12,02,06,00,0.00
2007,12,02,06,01,0.00
2007,12,02,06,02,0.00
2007,12,02,06,03,0.00
2007,12,02,06,04,0.00
2007,12,02,06,05,0.10
2007,12,02,06,06,0.10
2007,12,02,06,07,0.10
2007,12,02,06,08,0.10
2007,12,02,06,09,0.20
2007,12,02,06,10,0.20
2007,12,02,06,11,0.20
2007,12,02,06,12,0.20
2007,12,02,06,13,0.20
2007,12,02,06,14,0.20
2007,12,02,06,15,0.20
2007,12,02,06,16,0.20
2007,12,02,06,17,0.20
2007,12,02,06,18,0.20
2007,12,02,06,19,0.20
2007,12,02,06,20,0.10
2007,12,02,06,21,0.10
2007,12,02,06,22,0.10
2007,12,02,06,23,0.10
2007,12,02,06,24,0.10
2007,12,02,06,25,0.10
2007,12,02,06,26,0.10
2007,12,02,06,27,0.10
2007,12,02,06,28,0.10
2007,12,02,06,29,0.10
2007,12,02,06,30,0.10
2007,12,02,06,31,0.00
2007,12,02,06,32,0.10
2007,12,02,06,33,0.00
2007,12,02,06,34,0.00
2007,12,02,06,35,0.00
2007,12,02,06,36,0.00
2007,12,02,06,37,0.00
2007,12,02,06,38,0.00
2007,12,02,06,39,0.00
2007,12,02,06,40,0.00
2007,12,02,06,41,-0.10
2007,12,02,06,42,-0.10
2007,12,02,06,43,-0.10
2007,12,02,06,44,-0.10
2007,12,02,06,45,0.00
2007,12,02,06,46,0.00
2007,12,02,06,47,0.00
2007,12,02,06,48,0.00
2007,12,02,06,49,0.00
2007,12,02,06,50,0.00
2007,12,02,06,51,0.00
2007,12,02,06,52,0.10
2007,12,02,06,53,0.10
2007,12,02,06,54,0.10
2007,12,02,06,55,0.10
2007,12,02,06,56,0.10
2007,12,02,06,57,0.10
2007,12,02,06,58,0.10
2007,12,02,06,59,0.10
2007,12,02,07,00,0.10
2007,12,02,07,01,0.00
2007,12,02,07,02,0.00
2007,12,02,07,03,0.00
2007,12,02,07,04,0.00
2007,12,02,07,05,-0.10
2007,12,02,07,06,-0.10
2007,12,02,07,07,0.00
2007,12,02,07,08,0.00
2007,12,02,07,09,0.00
2007,12,02,07,10,0.00
2007,12,02,07,11,0.10
2007,12,02,07,12,0.10
2007,12,02,07,13,0.10
2007,12,02,07,14,0.10
2007,12,02,07,15,0.10
2007,12,02,07,16,0.10
2007,12,02,07,17,0.10
2007,12,02,07,18,0.10
2007,12,02,07,19,0.10
2007,12,02,07,20,0.10
2007,12,02,07,21,0.10
2007,12,02,07,22,0.10
2007,12,02,07,23,0.10
2007,12,02,07,24,0.10
2007,12,02,07,25,0.10
2007,12,02,07,26,0.10
2007,12,02,07,27,0.00
2007,12,02,07,28,0.00
2007,12,02,07,29,0.00
2007,12,02,07,30,0.00
2007,12,02,07,31,0.00
2007,12,02,07,32,0.10
2007,12,02,07,33,0.20
2007,12,02,07,34,0.20
2007,12,02,07,35,0.30
2007,12,02,07,36,0.20
2007,12,02,07,37,0.30
2007,12,02,07,38,0.30
2007,12,02,07,39,0.30
2007,12,02,07,40,0.30
2007,12,02,07,41,0.30
2007,12,02,07,42,0.30
2007,12,02,07,43,0.20
2007,12,02,07,44,0.20
2007,12,02,07,45,0.20
2007,12,02,07,46,0.20
2007,12,02,07,47,0.20
2007,12,02,07,48,0.20
2007,12,02,07,49,0.20
2007,12,02,07,50,0.20
2007,12,02,07,51,0.20
2007,12,02,07,52,0.20
2007,12,02,07,53,0.20
2007,12,02,07,54,0.10
2007,12,02,07,55,0.10
2007,12,02,07,56,0.10
2007,12,02,07,57,0.10
2007,12,02,07,58,0.10
2007,12,02,07,59,0.10
2007,12,02,08,00,0.10
2007,12,02,08,01,0.10
2007,12,02,08,02,0.10
2007,12,02,08,03,0.10
2007,12,02,08,04,0.10
2007,12,02,08,05,0.10
2007,12,02,08,06,0.20
2007,12,02,08,07,0.20
2007,12,02,08,08,0.20
2007,12,02,08,09,0.10
2007,12,02,08,10,0.10
2007,12,02,08,11,0.10
2007,12,02,08,12,0.10
2007,12,02,08,13,0.10
2007,12,02,08,14,0.10
2007,12,02,08,15,0.10
2007,12,02,08,16,0.10
2007,12,02,08,17,0.10
2007,12,02,08,18,0.10
2007,12,02,08,19,0.10
2007,12,02,08,20,0.20
2007,12,02,08,21,0.20
2007,12,02,08,22,0.20
2007,12,02,08,23,0.20
2007,12,02,08,24,0.10
2007,12,02,08,25,0.10
2007,12,02,08,26,0.10
2007,12,02,08,27,0.10
2007,12,02,08,28,0.10
2007,12,02,08,29,0.10
2007,12,02,08,30,0.10
2007,12,02,08,31,0.10
2007,12,02,08,32,0.10
2007,12,02,08,33,0.10
2007,12,02,08,34,0.10
2007,12,02,08,35,0.20
2007,12,02,08,36,0.20
2007,12,02,08,37,0.20
2007,12,02,08,38,0.20
2007,12,02,08,39,0.10
2007,12,02,08,40,0.10
2007,12,02,08,41,0.10
2007,12,02,08,42,0.10
2007,12,02,08,43,0.10
2007,12,02,08,44,0.10
2007,12,02,08,45,0.10
2007,12,02,08,46,0.10
2007,12,02,08,47,0.10
2007,12,02,08,48,0.10
2007,12,02,08,49,0.00
2007,12,02,08,50,0.10
2007,12,02,08,51,0.10
2007,12,02,08,52,0.10
2007,12,02,08,53,0.10
2007,12,02,08,54,0.00
2007,12,02,08,55,0.00
2007,12,02,08,56,0.00
2007,12,02,08,57,0.00
2007,12,02,08,58,0.00
2007,12,02,08,59,0.00
2007,12,02,09,00,0.00
2007,12,02,09,01,0.00
2007,12,02,09,02,0.00
2007,12,02,09,03,0.10
2007,12,02,09,04,0.00
2007,12,02,09,05,0.00
2007,12,02,09,06,0.00
2007,12,02,09,07,0.00
2007,12,02,09,08,0.00
2007,12,02,09,09,0.00
2007,12,02,09,10,0.00
2007,12,02,09,11,0.00
2007,12,02,09,12,0.10
2007,12,02,09,13,0.10
2007,12,02,09,14,0.10
2007,12,02,09,15,0.10
2007,12,02,09,16,0.10
2007,12,02,09,17,0.10
2007,12,02,09,18,0.10
2007,12,02,09,19,0.10
2007,12,02,09,20,0.10
2007,12,02,09,21,0.10
2007,12,02,09,22,0.10
2007,12,02,09,23,0.10
2007,12,02,09,24,0.10
2007,12,02,09,25,0.10
2007,12,02,09,26,0.10
2007,12,02,09,27,0.10
2007,12,02,09,28,0.10
2007,12,02,09,29,0.10
2007,12,02,09,30,0.10
2007,12,02,09,31,0.10
2007,12,02,09,32,0.10
2007,12,02,09,33,0.10
2007,12,02,09,34,0.10
2007,12,02,09,35,0.10
2007,12,02,09,36,0.10
2007,12,02,09,37,0.10
2007,12,02,09,38,0.10
2007,12,02,09,39,0.10
2007,12,02,09,40,0.10
2007,12,02,09,41,0.10
2007,12,02,09,42,0.10
2007,12,02,09,43,0.10
2007,12,02,09,44,0.10
2007,12,02,09,45,0.10
2007,12,02,09,46,0.10
2007,12,02,09,47,0.10
2007,12,02,09,48,0.10
2007,12,02,09,49,0.10
2007,12,02,09,50,0.10
2007,12,02,09,51,0.10
2007,12,02,09,52,0.10
2007,12,02,09,53,0.10
2007,12,02,09,54,0.10
2007,12,02,09,55,0.10
2007,12,02,09,56,0.10
2007,12,02,09,57,0.10
2007,12,02,09,58,0.10
2007,12,02,09,59,0.10
2007,12,02,10,00,0.10
2007,12,02,10,01,0.10
2007,12,02,10,02,0.10
2007,12,02,10,03,0.10
2007,12,02,10,04,0.10
2007,12,02,10,05,0.10
2007,12,02,10,06,0.10
2007,12,02,10,07,0.10
2007,12,02,10,08,0.10
2007,12,02,10,09,0.10
2007,12,02,10,10,0.20
2007,12,02,10,11,0.20
2007,12,02,10,12,0.20
2007,12,02,10,13,0.20
2007,12,02,10,14,0.20
2007,12,02,10,15,0.20
2007,12,02,10,16,0.20
2007,12,02,10,17,0.20
2007,12,02,10,18,0.20
2007,12,02,10,19,0.20
2007,12,02,10,20,0.20
2007,12,02,10,21,0.20
2007,12,02,10,22,0.20
2007,12,02,10,23,0.20
2007,12,02,10,24,0.20
2007,12,02,10,25,0.20
2007,12,02,10,26,0.20
2007,12,02,10,27,0.20
2007,12,02,10,28,0.20
2007,12,02,10,29,0.20
2007,12,02,10,30,0.20
2007,12,02,10,31,0.20
2007,12,02,10,32,0.20
2007,12,02,10,33,0.20
2007,12,02,10,34,0.20
2007,12,02,10,35,0.20
2007,12,02,10,36,0.20
2007,12,02,10,37,0.20
2007,12,02,10,38,0.20
2007,12,02,10,39,0.20
2007,12,02,10,40,0.20
2007,12,02,10,41,0.20
2007,12,02,10,42,0.20
2007,12,02,10,43,0.20
2007,12,02,10,44,0.20
2007,12,02,10,45,0.20
2007,12,02,10,46,0.20
2007,12,02,10,47,0.20
2007,12,02,10,48,0.20
2007,12,02,10,49,0.20
2007,12,02,10,50,0.20
2007,12,02,10,51,0.20
2007,12,02,10,52,0.20
2007,12,02,10,53,0.20
2007,12,02,10,54,0.20
2007,12,02,10,55,0.20
2007,12,02,10,56,0.20
2007,12,02,10,57,0.20
2007,12,02,10,58,0.20
2007,12,02,10,59,0.20
2007,12,02,11,00,0.20
2007,12,02,11,01,0.20
2007,12,02,11,02,0.20
2007,12,02,11,03,0.20
2007,12,02,11,04,0.20
2007,12,02,11,05,0.20
2007,12,02,11,06,0.20
2007,12,02,11,07,0.20
2007,12,02,11,08,0.30
2007,12,02,11,09,0.30
2007,12,02,11,10,0.30
2007,12,02,11,11,0.30
2007,12,02,11,12,0.30
2007,12,02,11,13,0.30
2007,12,02,11,14,0.30
2007,12,02,11,15,0.30
2007,12,02,11,16,0.30
2007,12,02,11,17,0.30
2007,12,02,11,18,0.30
2007,12,02,11,19,0.30
2007,12,02,11,20,0.30
2007,12,02,11,21,0.30
2007,12,02,11,22,0.30
2007,12,02,11,23,0.30
2007,12,02,11,24,0.30
2007,12,02,11,25,0.30
2007,12,02,11,26,0.30
2007,12,02,11,27,0.30
2007,12,02,11,28,0.30
2007,12,02,11,29,0.30
2007,12,02,11,30,0.30
2007,12,02,11,31,0.30
2007,12,02,11,32,0.30
2007,12,02,11,33,0.30
2007,12,02,11,34,0.20
2007,12,02,11,35,0.20
2007,12,02,11,36,0.20
2007,12,02,11,37,0.20
2007,12,02,11,38,0.20
2007,12,02,11,39,0.20
2007,12,02,11,40,0.20
2007,12,02,11,41,0.20
2007,12,02,11,42,0.20
2007,12,02,11,43,0.20
2007,12,02,11,44,0.20
2007,12,02,11,45,0.20
2007,12,02,11,46,0.20
2007,12,02,11,47,0.20
2007,12,02,11,48,0.20
2007,12,02,11,49,0.20
2007,12,02,11,50,0.20
2007,12,02,11,51,0.20
2007,12,02,11,52,0.20
2007,12,02,11,53,0.20
2007,12,02,11,54,0.20
2007,12,02,11,55,0.20
2007,12,02,11,56,0.20
2007,12,02,11,57,0.20
2007,12,02,11,58,0.20
2007,12,02,11,59,0.20
2007,12,02,12,00,0.20
2007,12,02,12,01,0.20
2007,12,02,12,02,0.20
2007,12,02,12,03,0.20
2007,12,02,12,04,0.20
2007,12,02,12,05,0.10
2007,12,02,12,06,0.20
2007,12,02,12,07,0.10
2007,12,02,12,08,0.10
2007,12,02,12,09,0.10
2007,12,02,12,10,0.10
2007,12,02,12,11,0.10
2007,12,02,12,12,0.10
2007,12,02,12,13,0.10
2007,12,02,12,14,0.20
2007,12,02,12,15,0.20
2007,12,02,12,16,0.20
2007,12,02,12,17,0.20
2007,12,02,12,18,0.20
2007,12,02,12,19,0.20
2007,12,02,12,20,0.20
2007,12,02,12,21,0.20
2007,12,02,12,22,0.20
2007,12,02,12,23,0.20
2007,12,02,12,24,0.20
2007,12,02,12,25,0.20
2007,12,02,12,26,0.20
2007,12,02,12,27,0.20
2007,12,02,12,28,0.20
2007,12,02,12,29,0.20
2007,12,02,12,30,0.20
2007,12,02,12,31,0.20
2007,12,02,12,32,0.20
2007,12,02,12,33,0.20
2007,12,02,12,34,0.20
2007,12,02,12,35,0.20
2007,12,02,12,36,0.20
2007,12,02,12,37,0.20
2007,12,02,12,38,0.20
2007,12,02,12,39,0.20
2007,12,02,12,40,0.20
2007,12,02,12,41,0.20
2007,12,02,12,42,0.20
2007,12,02,12,43,0.20
2007,12,02,12,44,0.10
2007,12,02,12,45,0.10
2007,12,02,12,46,0.10
2007,12,02,12,47,0.10
2007,12,02,12,48,0.10
2007,12,02,12,49,0.10
2007,12,02,12,50,0.10
2007,12,02,12,51,0.10
2007,12,02,12,52,0.10
2007,12,02,12,53,0.10
2007,12,02,12,54,0.10
2007,12,02,12,55,0.10
2007,12,02,12,56,0.10
2007,12,02,12,57,0.10
2007,12,02,12,58,0.10
2007,12,02,12,59,0.10
2007,12,02,13,03,0.20
2007,12,02,13,04,0.20
2007,12,02,13,05,0.20
2007,12,02,19,22,0.60
2007,12,02,19,23,0.50
2007,12,02,19,24,0.50
2007,12,02,19,25,0.50
2007,12,02,19,26,0.50
2007,12,02,19,27,0.50
2007,12,02,19,28,0.60
2007,12,02,19,29,0.60
2007,12,02,19,30,0.60
2007,12,02,19,31,0.60
2007,12,02,19,32,0.60
2007,12,02,19,33,0.60
2007,12,02,19,34,0.50
2007,12,02,19,35,0.60
2007,12,02,19,36,0.60
2007,12,02,19,37,0.60
2007,12,02,19,38,0.60
2007,12,02,19,39,0.60
2007,12,02,19,40,0.60
2007,12,02,19,41,0.60
2007,12,02,19,42,0.60
2007,12,02,19,43,0.60
2007,12,02,19,44,0.60
2007,12,02,19,45,0.60
2007,12,02,19,46,0.60
2007,12,02,19,47,0.60
2007,12,02,19,48,0.60
2007,12,02,19,49,0.60
2007,12,02,19,50,0.60
2007,12,02,19,51,0.60
2007,12,02,19,52,0.60
2007,12,02,19,53,0.60
2007,12,02,19,54,0.60
2007,12,02,19,55,0.60
2007,12,02,19,56,0.60
2007,12,02,19,57,0.60
2007,12,02,19,58,0.60
2007,12,02,19,59,0.60
2007,12,02,20,00,0.60
2007,12,02,20,01,0.60
2007,12,02,20,02,0.60
2007,12,02,20,03,0.60
2007,12,02,20,04,0.60
2007,12,02,20,05,0.70
2007,12,02,20,06,0.70
2007,12,02,20,07,0.70
2007,12,02,20,08,0.70
2007,12,02,20,09,0.70
2007,12,02,20,10,0.70
2007,12,02,20,11,0.70
2007,12,02,20,12,0.70
2007,12,02,20,13,0.70
2007,12,02,20,14,0.70
2007,12,02,20,15,0.70
2007,12,02,20,16,0.70
2007,12,02,20,17,0.70
2007,12,02,20,18,0.70
2007,12,02,20,19,0.70
2007,12,02,20,20,0.70
2007,12,02,20,21,0.70
2007,12,02,20,22,0.70
2007,12,02,20,23,0.60
2007,12,02,20,24,0.60
2007,12,02,20,25,0.60
2007,12,02,20,26,0.50
2007,12,02,20,27,0.50
2007,12,02,20,28,0.50
2007,12,02,20,29,0.60
2007,12,02,20,30,0.60
2007,12,02,20,31,0.60
2007,12,02,20,32,0.60
2007,12,02,20,33,0.60
2007,12,02,20,34,0.60
2007,12,02,20,35,0.60
2007,12,02,20,36,0.50
2007,12,02,20,37,0.50
2007,12,02,20,38,0.50
2007,12,02,20,39,0.50
2007,12,02,20,40,0.60
2007,12,02,20,41,0.60
2007,12,02,20,42,0.60
2007,12,02,20,43,0.60
2007,12,02,20,44,0.50
2007,12,02,20,45,0.50
2007,12,02,20,46,0.50
2007,12,02,20,47,0.40
2007,12,02,20,48,0.40
2007,12,02,20,49,0.40
2007,12,02,20,50,0.40
2007,12,02,20,51,0.40
2007,12,02,20,52,0.40
2007,12,02,20,53,0.40
2007,12,02,20,54,0.40
2007,12,02,20,55,0.40
2007,12,02,20,56,0.40
2007,12,02,20,57,0.40
2007,12,02,20,58,0.40
2007,12,02,20,59,0.40
2007,12,02,21,00,0.40
2007,12,02,21,01,0.40
2007,12,02,21,02,0.40
2007,12,02,21,03,0.40
2007,12,02,21,04,0.40
2007,12,02,21,05,0.40
2007,12,02,21,06,0.40
2007,12,02,21,07,0.40
2007,12,02,21,08,0.40
2007,12,02,21,09,0.40
2007,12,02,21,10,0.40
2007,12,02,21,11,0.50
2007,12,02,21,12,0.50
2007,12,02,21,13,0.50
2007,12,02,21,14,0.60
2007,12,02,21,15,0.60
2007,12,02,21,16,0.60
2007,12,02,21,17,0.70
2007,12,02,21,18,0.70
2007,12,02,21,19,0.70
2007,12,02,21,20,0.70
2007,12,02,21,21,0.70
2007,12,02,21,22,0.70
2007,12,02,21,23,0.70
2007,12,02,21,24,0.70
2007,12,02,21,25,0.70
2007,12,02,21,26,0.70
2007,12,02,21,27,0.70
2007,12,02,21,28,0.70
2007,12,02,21,29,0.70
2007,12,02,21,30,0.70
2007,12,02,21,31,0.70
2007,12,02,21,32,0.70
2007,12,02,21,33,0.70
2007,12,02,21,34,0.70
2007,12,02,21,35,0.60
2007,12,02,21,36,0.60
2007,12,02,21,37,0.60
2007,12,02,21,38,0.50
2007,12,02,21,39,0.50
2007,12,02,21,40,0.50
2007,12,02,21,41,0.50
2007,12,02,21,42,0.40
2007,12,02,21,43,0.40
2007,12,02,21,44,0.40
2007,12,02,21,45,0.40
2007,12,02,21,46,0.40
2007,12,02,21,47,0.40
2007,12,02,21,48,0.40
2007,12,02,21,49,0.40
2007,12,02,21,50,0.40
2007,12,02,21,51,0.40
2007,12,02,21,52,0.40
2007,12,02,21,53,0.40
2007,12,02,21,54,0.40
2007,12,02,21,55,0.40
2007,12,02,21,56,0.40
2007,12,02,21,57,0.40
2007,12,02,21,58,0.40
2007,12,02,21,59,0.40
2007,12,02,22,00,0.40
2007,12,02,22,01,0.40
2007,12,02,22,02,0.40
2007,12,02,22,03,0.40
2007,12,02,22,04,0.50
2007,12,02,22,05,0.50
2007,12,02,22,06,0.60
2007,12,02,22,07,0.70
2007,12,02,22,08,0.80
2007,12,02,22,09,0.90
2007,12,02,22,10,0.90
2007,12,02,22,11,1.00
2007,12,02,22,12,0.90
2007,12,02,22,13,0.90
2007,12,02,22,14,0.90
2007,12,02,22,15,0.90
2007,12,02,22,16,0.90
2007,12,02,22,17,0.90
2007,12,02,22,18,0.90
2007,12,02,22,19,0.90
2007,12,02,22,20,0.80
2007,12,02,22,21,0.80
2007,12,02,22,22,0.80
2007,12,02,22,23,0.80
2007,12,02,22,24,0.90
2007,12,02,22,25,0.90
2007,12,02,22,26,0.90
2007,12,02,22,27,0.90
2007,12,02,22,28,0.80
2007,12,02,22,29,0.80
2007,12,02,22,30,0.80
2007,12,02,22,31,0.80
2007,12,02,22,32,0.80
2007,12,02,22,33,0.80
2007,12,02,22,34,0.80
2007,12,02,22,35,0.80
2007,12,02,22,36,0.90
2007,12,02,22,37,0.80
2007,12,02,22,38,0.80
2007,12,02,22,39,0.90
2007,12,02,22,40,0.90
2007,12,02,22,41,0.90
2007,12,02,22,42,0.90
2007,12,02,22,43,0.80
2007,12,02,22,44,0.80
2007,12,02,22,45,0.80
2007,12,02,22,46,0.80
2007,12,02,22,47,0.90
2007,12,02,22,48,0.90
2007,12,02,22,49,1.00
2007,12,02,22,50,1.00
2007,12,02,22,51,1.10
2007,12,02,22,52,1.10
2007,12,02,22,53,1.20
2007,12,02,22,54,1.20
2007,12,02,22,55,1.20
2007,12,02,22,56,1.20
2007,12,02,22,57,1.20
2007,12,02,22,58,1.10
2007,12,02,22,59,1.10
2007,12,02,23,00,1.00
2007,12,02,23,01,0.90
2007,12,02,23,02,0.80
2007,12,02,23,03,0.70
2007,12,02,23,04,0.60
2007,12,02,23,05,0.60
2007,12,02,23,06,0.70
2007,12,02,23,07,0.80
2007,12,02,23,08,0.80
2007,12,02,23,09,0.90
2007,12,02,23,10,0.90
2007,12,02,23,11,0.90
2007,12,02,23,12,0.90
2007,12,02,23,13,0.90
2007,12,02,23,14,0.90
2007,12,02,23,15,0.90
2007,12,02,23,16,0.90
2007,12,02,23,17,0.80
2007,12,02,23,18,0.80
2007,12,02,23,19,0.80
2007,12,02,23,20,0.70
2007,12,02,23,21,0.70
2007,12,02,23,22,0.70
2007,12,02,23,23,0.70
2007,12,02,23,24,0.60
2007,12,02,23,25,0.60
2007,12,02,23,26,0.60
2007,12,02,23,27,0.60
2007,12,02,23,28,0.60
2007,12,02,23,29,0.50
2007,12,02,23,30,0.50
2007,12,02,23,31,0.50
2007,12,02,23,32,0.50
2007,12,02,23,33,0.50
2007,12,02,23,34,0.60
2007,12,02,23,35,0.60
2007,12,02,23,36,0.60
2007,12,02,23,37,0.60
2007,12,02,23,38,0.70
2007,12,02,23,39,0.70
2007,12,02,23,40,0.80
2007,12,02,23,41,0.80
2007,12,02,23,42,0.90
2007,12,02,23,43,0.90
2007,12,02,23,44,0.90
2007,12,02,23,45,0.90
2007,12,02,23,46,0.80
2007,12,02,23,47,0.80
2007,12,02,23,48,0.70
2007,12,02,23,49,0.80
2007,12,02,23,50,0.80
2007,12,02,23,51,0.80
2007,12,02,23,52,0.80
2007,12,02,23,53,0.90
2007,12,02,23,54,0.90
2007,12,02,23,55,0.90
2007,12,02,23,56,0.90
2007,12,02,23,57,0.90
2007,12,02,23,58,0.90
2007,12,02,23,59,0.90
